sat.trackr.live / text

‹ back to catalog

STARLINK-3638

NORAD 51786 · 2022-017U

PAYLOAD ACTIVE UNKNOWN

§ Identity

Operator
Country
US
Launch date
2022-02-25
Launch site
AFWTR
Launch vehicle
Mass (kg)
RCS (m²)

Purposes: comms

External: N2YO · Heavens-Above · Gunter

§ Orbital elements

Epoch: 2026-05-25T00:45:23.855040Z

Period
95.44 min
Inclination
53.2123°
Eccentricity
0.0001787
Mean motion
15.08844594 rev/d
Perigee alt
538.5 km
Apogee alt
541.0 km
Semi-major
6,917.9 km
B*
-6.3043e-5
RAAN
6.4078°
Arg perigee
86.4414°
Mean anomaly
273.6783°
Rev number
23,380

§ Raw data

STARLINK-36381 51786U 22017U   26145.03152610 -.00001291  00000+0 -63043-4 0  99992 51786  53.2123   6.4078 0001787  86.4414 273.6783 15.08844594233800

JSON: /api/v1/satellites/51786 · /tle

For live sub-satellite position, see the globe view (requires WebGL).

§ Visibility from observer

Set your observer location to see the next 7 days of passes ≥ 10°. The values pass through the URL so the page stays shareable.

No JS? Fill the form by hand. The geolocation button needs JavaScript.